map of SOZ home
Great Circle Mapper logo
SOZ - Airport
Location
City:  Solenzara, Corse (Corsica), France
Name:Solenzara Airport
ICAO:LFKS
IATA:SOZ

Details
Type:Airport (Aerodrome, Airfield)
Use:Military
Latitude:4155'35"N (41.926389)
Longitude:924'19"E (9.405278)
Elevation:28 ft (9 m)
Variation:2.29E (WMM2015 magnetic declination)
0.11 annual change
Runways:1
Longest:8619 × 148 ft (2627 × 45 m)

Time
Time Zone:UTC+1 (DST+2)
Local Time:

Weather
METAR:LFKS 010300Z AUTO 28005KT CAVOK 15/10 Q1014
TAF:LFKS 010200Z 0103/0203 27010KT CAVOK
TEMPO 0109/0114 27010G20KT= TAF LFMY 010200Z 0103/0203 31012KT 9999 FEW025 SCT040
TEMPO 0112/0118 SHRA SCT035TCU SCT050

Related Locations
Nearby:
Farthest:CHT: 12114 mi / 19496 km
Waitangi [Tuuta], Chatham Islands, NZ

Find:

   beyond  
but within

Other Information
Maps:
NOTAMs:
Links:
Sources:

  
flag of France
flag of Corse (Corsica)
  

Sectional Chart

Flight Planning
at skyvector.com

Satellite Image

Google Maps Satellite view

 

Copyright © 2004-2016 Karl L. Swartz. All rights reserved.
The Great Circle Mapper name and logo are trademarks of the Great Circle Mapper.
All other trademarks mentioned herein belong to their respective owners.
Please see credits for attibutions and further copyright information.

  Follow gcmap on Facebook Follow gcmap on Twitter Follow gcmap on Google+ GCmap on LinkedIn

hCard Microformat

Geo Microformat